Back to catalog

SL-8 DEB

AliveLEO
NORAD 21175·DEBRIS·🇷🇺 Russia

Launched Feb 12, 1991 from Plesetsk Cosmodrome

Loading…

Next Passes (next 24 hours)

TLE

FreshSource: Space-Track

Epoch: Sep 13, 2026, 20:42 UTC

1 21175U 91009AN  26256.86276571 -.00000029  00000-0 -11346-3 0  9999
2 21175  73.9340  61.4911 0147110 338.0192 142.5662 12.28586211593308

Track SL-8 DEB in real time with AllMySat

Download on the App Store